Date,TemperatureHighF,TemperatureAvgF,TemperatureLowF,DewpointHighF,DewpointAvgF,DewpointLowF,HumidityHigh,HumidityAvg,HumidityLow,PressureMaxIn,PressureMinIn,WindSpeedMaxMPH,WindSpeedAvgMPH,GustSpeedMaxMPH,PrecipitationSumIn
2013-1-14,22.2,16.2,8.1,13.2,10.4,5.5,89,78,65,30.51,30.50,15,2,16,0.00
2013-1-15,30.7,18.1,4.5,16.2,10.3,1.5,99,73,53,30.51,30.11,18,3,18,0.00
2013-1-16,35.1,27.2,20.4,31.3,21.0,11.4,92,77,60,30.22,29.84,21,4,21,0.00
2013-1-17,23.9,16.6,10.5,13.2,6.7,-0.9,92,66,49,30.50,30.22,13,2,15,0.00
2013-1-18,46.6,32.0,11.5,33.8,24.8,8.5,90,75,59,30.49,29.87,21,4,22,0.00
2013-1-19,46.0,31.0,8.8,34.5,24.2,-0.3,93,77,39,30.17,29.72,32,4,32,0.00
2013-1-20,14.2,7.5,4.2,0.7,-1.8,-2.9,81,66,47,30.45,30.17,17,4,17,0.00
2013-1-31,9.4,3.7,-1.9,4.7,-1.0,-6.3,85,80,75,30.32,30.03,8,3,14,0.00
2013-2-1,4.1,-1.5,-13.4,0.2,-7.7,-17.6,92,75,59,30.46,30.24,7,3,12,0.05
2013-2-2,12.7,6.9,1.1,4.1,1.4,-3.3,96,78,63,30.28,30.12,5,1,9,0.00
2013-2-3,17.2,12.3,4.7,11.4,7.1,1.4,90,80,65,30.17,30.07,8,2,14,0.03
2013-2-4,19.2,13.3,3.1,11.4,7.1,-0.1,89,77,52,30.13,30.02,5,2,9,0.04
2013-2-5,30.1,18.8,0.6,26.1,14.8,-2.6,92,84,74,30.22,29.86,7,3,14,0.03
2013-2-6,30.3,14.3,-7.6,28.3,10.2,-11.4,92,83,74,30.31,30.11,7,1,11,0.02
2013-2-7,32.4,29.7,26.4,30.3,27.7,23.6,100,92,89,30.25,30.05,6,2,12,0.05
2013-2-8,27.5,19.5,1.8,23.6,13.5,-1.2,89,78,59,30.47,30.25,5,2,9,0.00
2013-2-9,28.7,20.0,0.2,25.5,16.7,-3.0,92,87,82,30.47,30.11,10,5,17,0.00
2013-2-10,41.3,34.2,28.7,40.2,32.2,25.3,96,92,87,30.12,29.38,10,4,17,0.45
2013-2-11,35.2,29.0,21.6,33.4,25.2,17.0,94,86,77,30.10,29.38,13,7,22,0.02
2013-2-12,32.5,23.6,15.4,23.6,18.1,13.2,92,80,68,30.17,29.93,10,3,17,0.00
2013-2-13,37.8,25.7,11.0,30.9,20.8,8.6,94,82,66,29.94,29.69,6,1,9,0.04
2013-2-14,34.6,31.5,19.6,33.2,25.5,10.4,96,79,62,30.17,29.63,9,4,20,0.03
2013-2-15,20.7,14.4,5.2,10.6,5.8,-0.4,84,68,58,30.36,30.18,9,2,12,0.00
2013-2-16,17.5,9.1,-1.8,5.9,1.8,-5.5,92,73,53,30.35,30.27,6,1,9,0.00
2013-2-17,28.3,12.8,-7.1,21.1,5.1,-10.9,85,72,56,30.32,29.94,8,3,15,0.00
2013-2-18,40.9,30.7,17.5,32.5,24.9,13.7,90,79,70,29.94,29.59,10,5,19,0.00
2013-2-19,17.4,10.6,5.6,13.8,3.4,-3.8,86,72,60,30.38,29.72,9,5,17,0.00
2013-2-20,21.5,10.6,1.8,9.6,2.6,-4.3,86,70,57,30.53,30.38,7,2,11,0.00
2013-2-21,23.4,14.7,3.1,21.4,10.4,-0.1,92,83,72,30.57,30.15,11,5,19,0.00
2013-2-22,28.8,25.0,22.0,25.3,22.3,20.0,93,89,84,30.15,29.90,10,3,17,0.13
2013-2-23,29.2,24.6,16.1,21.8,19.8,13.2,92,82,68,30.05,29.93,7,3,12,0.00
2013-2-24,38.1,20.7,3.8,24.3,14.6,0.8,99,78,54,30.23,30.05,4,0,8,0.00
2013-2-25,39.1,28.0,18.5,27.9,22.4,15.5,95,80,62,30.24,30.12,3,0,8,0.00
2013-2-26,36.8,29.9,20.8,28.1,24.7,18.8,93,81,68,30.13,29.83,12,5,21,0.00
2013-2-27,33.4,31.2,28.5,30.3,28.0,25.5,93,88,81,29.96,29.80,8,4,14,0.13
2013-2-28,31.9,30.5,26.5,28.2,24.4,17.7,88,78,65,30.24,29.96,8,4,14,0.00
2013-3-1,29.6,22.6,7.0,19.0,15.2,3.8,88,73,58,30.38,30.24,7,3,11,0.00
2013-3-2,29.7,14.3,-1.0,13.9,6.0,-4.4,98,72,38,30.42,30.30,6,1,10,0.00
2013-3-3,34.1,16.1,-0.8,15.0,4.9,-4.2,97,66,26,30.31,30.16,5,1,10,0.00
2013-3-4,29.7,23.7,13.5,23.1,15.8,3.6,89,72,46,30.21,30.09,10,4,16,0.01
2013-3-5,28.3,26.6,25.2,25.3,23.5,21.4,92,88,78,30.27,30.04,6,3,10,0.22
2013-3-6,30.3,23.1,5.3,22.1,18.1,2.3,89,81,65,30.45,30.27,6,2,11,0.00
2013-3-7,36.5,17.6,-2.4,20.5,10.1,-5.9,88,74,49,30.54,30.45,4,0,7,0.00
2013-3-8,40.8,26.4,7.6,28.2,19.5,4.8,90,76,58,30.54,30.31,9,3,17,0.00
2013-3-9,38.3,36.2,31.5,37.0,32.5,26.0,95,87,76,30.31,29.83,9,4,18,0.28
2013-3-10,37.2,35.7,32.4,36.3,34.5,31.1,97,95,91,29.90,29.74,9,3,16,0.59
2013-3-11,32.6,30.4,27.6,31.6,28.2,25.1,96,91,89,29.88,29.69,3,0,9,0.00
2013-3-12,29.2,25.6,21.4,25.2,21.4,17.4,92,84,74,30.17,29.88,6,3,12,0.01
2013-3-13,32.1,22.2,11.7,19.4,12.9,8.4,92,70,39,30.43,30.17,7,2,13,0.00
2013-3-14,36.6,24.7,14.3,30.0,20.6,11.1,92,84,73,30.42,30.13,7,1,11,0.04
2013-3-15,35.2,29.9,22.4,32.6,28.0,20.7,94,92,89,30.13,29.88,9,1,13,0.15
2013-3-16,31.1,24.4,17.7,29.3,20.0,14.5,93,83,67,30.26,29.91,10,3,14,0.00
2013-3-17,29.9,21.7,12.6,18.9,12.6,5.6,88,68,56,30.37,30.09,11,4,19,0.00
2013-3-18,32.0,22.6,14.9,28.6,18.8,9.6,91,85,75,30.09,29.66,13,4,20,0.16
2013-3-19,27.1,17.5,9.7,10.5,7.8,4.3,82,66,45,30.21,29.84,13,7,22,0.00
2013-3-20,20.6,12.4,3.2,7.3,2.6,-2.2,92,65,52,30.24,30.17,9,3,16,0.00
2013-3-21,28.0,12.1,-4.7,11.4,3.5,-8.5,86,70,48,30.23,30.14,7,1,12,0.00
2013-3-22,36.3,19.5,2.3,18.0,9.8,-1.0,98,69,35,30.20,30.12,4,1,7,0.00
2013-3-23,39.6,28.2,13.6,24.4,17.4,11.0,92,66,43,30.24,30.13,5,1,8,0.00
2013-3-24,32.4,30.2,27.1,27.0,23.7,19.9,88,77,65,30.17,29.95,9,3,16,0.00
2013-3-25,35.3,30.3,23.3,24.7,21.2,17.3,82,69,58,30.24,29.98,8,4,14,0.00
2013-3-26,39.0,32.1,22.6,25.3,21.2,17.8,83,65,45,30.36,30.24,6,2,11,0.00
2013-3-27,42.3,33.8,23.5,26.5,22.9,18.7,88,67,42,30.41,30.36,6,1,12,0.00
2013-3-28,45.8,30.8,16.2,26.7,20.3,14.0,100,69,36,30.45,30.37,6,1,9,0.00
2013-3-29,52.2,34.6,18.6,31.0,23.2,16.7,100,68,32,30.43,30.27,4,0,8,0.00
2013-3-30,51.2,41.6,30.7,42.9,34.6,27.0,95,77,57,30.27,29.90,10,3,17,0.09
2013-3-31,40.4,35.0,29.7,36.1,28.8,16.7,97,80,46,30.05,29.83,8,4,22,0.00
2013-4-1,34.1,27.8,20.4,17.2,14.7,11.4,82,58,43,30.30,30.05,9,3,16,0.00
2013-4-2,38.0,26.0,15.6,19.3,15.3,11.1,94,67,36,30.45,30.30,10,2,14,0.00
2013-4-3,45.9,31.2,15.0,22.5,16.1,9.3,91,59,27,30.56,30.32,7,2,15,0.00
2013-4-4,52.1,41.5,31.5,38.2,27.3,19.3,82,57,47,30.32,30.06,10,4,14,0.00
2013-4-5,48.1,36.9,23.0,31.2,23.5,18.4,92,62,32,30.32,30.12,9,2,18,0.00
2013-4-6,58.8,45.5,35.5,48.8,33.9,18.0,91,65,47,30.13,29.56,12,6,21,0.12
2013-4-7,52.4,41.2,36.2,38.0,34.2,31.5,88,77,56,30.03,29.72,6,2,16,0.00
2013-4-8,53.2,43.9,38.0,45.3,38.3,34.6,92,81,71,30.06,29.77,5,2,12,0.14
2013-4-9,40.5,38.4,34.4,38.1,36.1,32.0,94,92,85,30.19,29.96,14,5,28,1.58
2013-4-10,35.4,33.5,31.8,32.9,31.0,29.6,93,90,80,30.20,29.98,12,6,23,0.79
2013-4-11,37.2,34.6,32.5,34.9,31.8,28.3,93,89,80,29.98,29.68,20,7,31,0.10
2013-4-12,36.0,33.0,30.8,32.1,30.1,29.0,95,89,79,29.88,29.64,9,2,15,0.04
2013-4-13,36.0,33.0,28.1,29.8,27.4,25.0,90,80,68,30.08,29.86,11,4,16,0.00
2013-4-14,43.9,34.8,27.9,39.7,32.0,24.8,95,89,82,30.08,29.65,10,3,22,0.63
2013-4-15,49.3,42.6,35.5,42.6,34.3,29.6,97,74,51,30.06,29.65,14,5,24,0.07
2013-4-16,50.4,38.5,28.8,32.9,29.5,26.3,91,72,45,30.39,30.05,7,2,14,0.00
2013-4-17,40.6,37.1,30.3,37.1,33.4,27.8,93,86,73,30.39,29.89,19,4,30,0.49
2013-4-18,43.0,40.3,34.7,41.7,38.6,32.3,97,94,91,29.89,29.37,9,3,17,0.24
2013-4-19,36.0,33.1,29.2,32.3,27.9,22.3,92,81,63,30.03,29.40,12,6,20,0.03
2013-4-20,44.8,33.3,21.1,27.5,19.1,11.6,92,60,30,30.44,30.03,9,2,18,0.00
2013-4-21,51.9,40.1,27.7,41.0,32.3,23.1,93,75,56,30.51,30.23,13,5,27,0.08
2013-4-22,54.3,48.5,44.9,49.0,44.3,40.6,95,86,71,30.26,30.02,7,2,16,0.08
2013-4-23,52.3,38.5,29.7,47.6,32.9,26.1,94,81,66,30.11,29.95,11,4,15,0.01
2013-4-24,50.9,38.8,24.6,36.8,27.4,22.6,93,67,41,30.15,30.01,16,4,26,0.04
2013-4-25,48.9,39.7,31.4,36.5,31.9,27.3,92,75,44,30.32,30.04,10,4,18,0.01
2013-4-26,70.1,54.6,30.7,48.7,38.9,27.7,90,58,39,30.30,30.13,14,6,25,0.00
2013-4-27,68.6,56.8,42.2,50.5,46.2,40.1,93,70,49,30.24,30.05,9,3,15,0.00
2013-4-28,73.2,55.5,36.5,48.8,42.7,35.2,100,67,34,30.05,29.80,7,2,13,0.00
2013-4-29,70.5,59.8,49.3,58.9,52.2,44.4,93,77,59,29.86,29.68,9,2,18,0.04
2013-4-30,82.8,71.1,54.2,60.4,56.5,43.5,92,62,42,29.96,29.63,16,6,27,0.00
2013-5-1,65.1,54.7,41.5,47.6,43.4,34.9,87,67,49,30.36,29.95,10,5,18,0.00
2013-5-2,41.6,37.0,32.6,36.0,33.0,29.7,92,86,77,30.46,30.34,9,6,18,0.12
2013-5-3,41.1,36.0,32.1,39.8,34.1,29.8,95,93,90,30.37,30.11,7,4,13,0.55
2013-5-4,70.2,55.4,41.1,56.4,48.9,39.8,100,81,57,30.12,30.06,6,2,11,0.13
2013-5-5,73.0,57.5,43.4,54.0,47.9,41.5,95,74,37,30.13,30.04,7,1,11,0.00
2013-5-6,77.5,59.0,40.9,51.8,44.2,39.6,96,65,27,30.15,30.02,7,1,12,0.00
2013-5-7,79.6,62.3,41.7,53.3,43.8,37.6,94,59,23,30.11,30.00,6,1,11,0.00
2013-5-8,80.7,63.9,42.2,53.7,45.9,39.8,93,59,26,30.07,29.96,4,1,10,0.00
2013-5-9,61.4,57.1,50.8,58.2,54.6,48.0,95,91,75,30.01,29.92,9,2,22,0.58
2013-5-10,60.2,49.7,41.6,48.3,44.2,39.4,93,82,62,30.08,29.98,7,3,15,0.00
2013-5-11,52.9,46.3,41.3,45.5,33.8,24.5,96,65,36,30.15,29.87,11,4,19,0.00
2013-5-12,55.5,45.1,34.7,30.3,25.8,20.9,78,49,27,30.22,30.13,9,3,16,0.00
2013-5-13,65.3,49.6,27.5,40.1,31.4,25.0,92,56,25,30.24,29.86,8,2,15,0.00
2013-5-14,90.1,72.7,49.0,59.5,50.8,40.2,81,49,24,29.86,29.52,13,3,23,0.00
2013-5-15,75.3,65.5,51.4,55.8,46.7,39.6,83,53,28,29.90,29.60,7,2,13,0.00
2013-5-16,85.1,67.0,43.4,57.9,47.7,41.5,94,57,26,29.98,29.87,8,1,12,0.00
2013-5-17,64.4,56.7,47.7,56.6,47.9,33.9,94,75,38,30.12,29.97,8,3,13,0.91
2013-5-18,80.9,66.2,49.5,65.5,57.0,46.8,92,74,55,30.10,29.91,6,2,13,0.00
2013-5-19,85.3,71.9,58.6,67.8,62.0,56.6,95,73,46,29.93,29.62,14,4,23,0.04
2013-5-20,80.3,69.6,61.6,62.3,60.6,57.6,96,75,46,29.78,29.58,12,4,22,0.53
2013-5-21,71.2,63.8,55.3,62.9,58.7,53.6,96,84,65,29.72,29.57,10,2,15,0.33
2013-5-22,60.8,57.4,52.8,58.7,55.8,51.4,96,94,90,29.89,29.67,5,1,12,0.80
2013-5-23,63.5,53.6,41.5,51.4,43.0,32.1,95,72,32,30.37,29.89,8,3,16,0.10
2013-5-24,68.0,51.0,34.2,47.6,39.3,32.9,97,69,36,30.51,30.33,6,1,11,0.00
2013-5-25,58.8,53.0,48.7,48.5,45.1,39.0,94,76,50,30.41,30.33,8,2,14,0.04
2013-5-26,60.8,54.2,48.6,52.4,44.9,36.2,90,72,49,30.35,30.18,7,2,17,0.07
2013-5-27,55.8,54.2,51.4,53.4,49.4,43.7,95,84,68,30.18,29.91,8,3,15,0.30
2013-5-28,66.4,58.4,51.4,62.0,55.8,49.8,96,91,84,29.92,29.73,4,1,9,0.01
2013-5-29,82.9,68.2,59.1,68.6,62.5,58.0,97,84,57,29.90,29.76,14,2,24,1.05
2013-5-30,80.1,69.3,62.7,71.6,65.0,59.6,96,87,60,29.84,29.65,13,4,23,0.29
2013-5-31,75.2,65.9,62.3,65.6,61.3,59.3,91,85,66,29.74,29.70,9,4,20,0.00
2013-6-28,66.7,64.9,64.2,63.3,62.8,62.1,95,93,87,29.72,29.69,2,0,5,0.44
2013-6-29,72.2,65.9,62.2,62.7,60.5,55.8,96,83,61,29.92,29.69,8,2,14,0.00
2013-6-30,79.2,67.3,55.9,59.5,53.4,47.0,89,64,33,30.11,29.92,6,1,12,0.00
2013-7-1,82.0,67.4,51.4,62.3,54.4,49.7,95,68,35,30.19,30.11,9,2,16,0.00
2013-7-2,78.0,66.8,54.6,61.6,57.0,51.7,95,73,48,30.16,30.08,6,2,13,0.00
2013-7-3,54.6,52.9,51.5,51.9,50.4,49.3,92,91,90,30.13,30.11,0,0,1,0.00
2013-10-4,61.3,60.2,59.0,60.2,58.9,57.9,96,95,94,30.01,29.94,7,3,17,0.09
2013-10-5,70.8,62.2,49.6,67.8,59.8,46.5,97,92,74,29.98,29.75,8,2,15,1.42
2013-10-6,58.0,47.7,39.7,46.4,42.2,38.3,97,83,51,29.82,29.72,7,1,10,0.00
2013-10-7,67.1,52.8,40.9,50.3,44.8,38.5,95,77,43,30.12,29.80,7,2,11,0.01
2013-10-8,75.7,55.9,35.8,51.9,43.6,34.5,96,68,35,30.17,30.06,9,2,17,0.00
2013-10-9,73.0,59.1,44.0,52.2,47.3,41.5,94,68,37,30.20,30.11,8,2,18,0.00
2013-10-10,73.6,53.5,37.1,54.8,45.0,35.5,96,77,44,30.20,30.05,7,1,14,0.00
2013-10-11,74.4,59.4,41.0,59.4,50.6,39.4,100,75,53,30.06,29.87,11,3,24,0.00
2013-10-12,68.5,59.3,40.0,57.9,47.6,35.9,88,67,43,30.23,29.83,10,3,19,0.02
2013-10-13,62.1,45.6,32.4,43.8,35.7,30.6,99,72,37,30.49,30.23,6,1,11,0.00
2013-10-14,60.1,46.3,30.1,44.5,38.1,28.3,100,75,54,30.50,30.14,11,4,17,0.00
2013-10-15,57.6,51.6,47.2,55.1,47.7,43.5,95,87,70,30.15,29.76,9,4,14,0.37
2013-10-16,50.0,47.8,42.9,47.4,45.3,39.9,96,91,85,29.99,29.80,4,1,9,0.00
2013-10-17,56.6,42.7,32.6,46.7,37.5,31.3,97,84,53,29.98,29.85,7,1,11,0.00
2013-10-18,49.3,43.5,35.6,43.8,38.6,33.4,93,83,61,30.00,29.85,8,2,13,0.00
2013-10-19,50.2,38.9,29.0,40.7,34.5,27.5,96,85,59,29.97,29.78,9,2,18,0.00
2013-10-20,48.8,39.9,30.2,43.2,36.2,28.7,100,87,76,29.89,29.73,10,2,17,0.00
2013-10-21,41.5,35.9,27.2,36.1,27.7,22.2,90,72,56,30.03,29.86,9,3,14,0.00
2013-10-22,46.4,32.4,21.1,31.6,25.7,18.9,98,78,51,30.08,30.00,5,1,10,0.00
2013-10-23,40.4,31.8,21.9,33.0,25.4,19.7,94,79,52,30.13,30.06,6,2,11,0.00
2013-10-24,42.7,35.9,29.5,28.2,26.0,24.2,85,68,50,30.39,30.13,7,2,14,0.00
2013-10-25,51.1,40.1,25.6,33.2,29.0,22.9,91,67,44,30.42,29.90,14,5,26,0.00
2013-10-26,50.8,44.8,35.7,36.8,32.3,28.7,86,62,49,30.14,29.82,13,4,18,0.00
2013-10-27,56.9,39.1,24.6,34.3,29.3,22.3,93,71,37,30.14,29.92,10,2,15,0.00
2013-10-28,42.5,38.8,34.9,33.9,29.5,26.4,83,69,62,30.48,30.15,10,4,15,0.00
2013-10-29,52.4,43.0,36.1,40.6,34.1,27.5,80,71,61,30.48,30.16,7,3,13,0.00
2013-10-30,54.0,50.0,46.2,52.2,46.3,40.5,94,87,75,30.16,29.80,6,2,11,0.00
2013-11-3,46.2,45.6,45.2,35.4,34.5,33.3,67,65,61,30.21,30.17,10,7,22,0.00
2013-11-4,49.8,46.8,44.7,45.5,39.8,34.3,95,77,64,30.22,30.02,11,5,21,0.00
2013-11-5,46.7,42.4,33.7,45.5,41.0,32.4,100,95,92,30.32,29.86,4,1,9,1.09
2013-11-6,44.7,37.7,26.9,43.6,31.1,21.5,96,79,43,30.25,29.83,9,4,21,0.29
2013-11-7,38.5,30.3,23.9,31.5,26.7,21.7,99,86,73,30.33,30.24,7,1,11,0.00
2013-11-8,45.5,34.1,19.2,37.8,27.4,17.3,94,78,55,30.35,29.79,10,4,21,0.03
2013-11-9,48.3,44.1,36.5,40.3,35.3,26.8,82,71,57,30.20,29.77,12,6,23,0.00
2013-11-10,47.1,41.0,35.1,31.8,29.8,27.2,75,65,51,30.40,30.16,7,3,11,0.00
2013-11-11,42.5,30.1,19.8,33.1,22.2,11.0,92,73,59,30.72,30.12,8,3,14,0.10
2013-11-12,27.5,20.4,14.1,16.2,11.9,8.5,80,70,57,30.86,30.65,7,2,11,0.00
2013-11-13,43.8,31.3,15.9,27.6,18.4,11.7,85,61,42,30.65,30.09,11,5,22,0.00
2013-11-14,48.2,40.1,29.8,31.7,26.4,18.9,83,58,48,30.09,29.91,8,4,13,0.00
2013-11-15,54.5,37.3,23.3,38.8,30.2,21.1,93,77,52,29.98,29.88,5,1,9,0.00
2013-11-16,60.5,48.3,40.0,56.6,45.0,34.0,99,88,75,29.88,29.38,10,4,20,0.61
2013-11-17,53.0,45.7,36.5,52.2,42.7,30.4,97,89,77,29.78,29.29,12,3,21,0.11
2013-11-18,36.4,31.2,20.6,30.5,23.9,18.0,90,74,63,30.37,29.78,9,4,20,0.00
2013-11-19,41.9,30.1,17.3,29.1,22.4,15.0,100,75,49,30.44,30.23,9,3,16,0.00
2013-11-20,39.3,36.5,34.4,34.9,30.1,27.7,93,78,64,30.23,30.11,11,5,21,0.05
2013-11-21,40.5,37.3,30.6,38.5,34.7,28.1,95,91,84,30.41,30.15,6,2,12,0.00
2013-11-22,33.3,27.4,23.1,28.3,19.9,14.0,92,74,46,30.61,30.41,8,3,14,0.03
2013-11-23,24.4,14.5,5.8,16.2,5.3,2.1,85,67,52,30.86,30.55,10,4,16,0.00
2013-11-24,5.8,5.6,5.5,2.4,2.2,2.0,86,85,85,30.83,30.81,1,1,3,0.00
2013-11-26,16.1,14.3,12.8,6.0,3.8,2.8,70,63,59,30.38,30.34,4,2,8,0.00
2013-11-27,26.8,18.3,9.6,13.6,9.0,2.8,81,67,53,30.44,30.27,6,2,10,0.00
2013-11-28,31.0,24.8,19.0,16.7,14.0,10.6,73,63,54,30.61,30.21,6,2,12,0.00
2013-11-29,31.8,21.7,8.4,20.5,14.5,5.3,92,74,56,30.70,30.37,9,3,16,0.00
2013-11-30,45.6,33.7,28.1,30.6,25.5,20.6,88,73,55,30.37,30.09,7,3,13,0.00
2013-12-1,42.0,30.4,21.6,29.2,25.0,19.1,92,81,58,30.25,30.05,3,0,5,0.00
2013-12-2,40.1,30.2,18.5,32.5,26.3,16.1,93,86,69,30.05,29.77,7,3,15,0.13
2013-12-3,35.2,34.2,33.4,34.2,32.9,31.8,96,95,92,29.83,29.74,7,3,11,0.01
2013-12-4,42.8,35.5,30.4,42.0,34.1,25.3,100,94,81,29.84,29.49,11,4,17,0.05
2013-12-5,30.4,18.4,12.8,25.7,12.1,6.4,83,76,67,30.13,29.72,15,9,21,0.00
2013-12-10,11.8,10.8,9.3,7.6,4.7,2.1,83,76,72,30.36,30.30,4,2,19,0.00
2013-12-11,13.9,2.3,-11.1,11.0,-4.2,-16.1,88,74,56,30.66,30.35,7,2,16,0.00
2013-12-12,20.2,10.3,-4.4,11.5,3.9,-8.8,83,75,64,30.60,30.29,7,3,12,0.00
2013-12-13,22.3,17.5,12.3,16.1,11.6,7.0,92,77,67,30.34,30.24,10,4,18,0.00
2013-12-14,22.3,17.6,12.5,16.5,12.8,7.3,92,81,73,30.33,30.09,7,3,13,0.00
2013-12-15,12.5,7.0,1.0,7.5,-1.1,-7.8,80,69,55,30.28,30.09,6,3,13,0.00
2013-12-16,16.4,7.0,-4.3,14.0,1.4,-9.7,90,78,60,30.28,30.12,7,2,9,0.01
2013-12-17,33.1,23.7,15.7,26.7,17.9,8.6,100,79,62,30.19,30.00,9,4,17,0.00
2013-12-18,35.8,20.8,2.9,25.3,13.6,-0.6,88,75,53,30.21,29.81,12,2,20,0.00
2013-12-19,26.7,22.2,13.5,22.4,18.2,10.9,93,84,76,30.09,29.88,10,4,20,0.00
2013-12-20,22.3,20.9,18.6,20.5,18.7,16.4,98,91,87,30.05,29.92,8,2,14,0.01
2013-12-21,26.6,24.2,22.0,26.6,22.1,20.1,100,91,85,30.01,29.90,6,2,11,0.00
2013-12-22,25.5,23.5,19.2,23.5,21.0,17.0,93,90,85,30.23,29.89,5,2,11,0.02
2013-12-23,19.8,6.2,-6.0,17.6,1.9,-10.3,91,82,75,30.60,30.23,7,3,11,0.00
2013-12-24,14.0,-0.4,-17.3,7.6,-5.1,-21.4,92,80,72,30.69,30.38,9,2,14,0.01
2013-12-25,23.6,16.4,8.1,21.4,13.6,5.3,99,88,82,30.38,30.17,7,3,11,0.00
2013-12-26,28.2,20.1,11.5,21.0,15.6,7.6,90,82,72,30.29,30.22,4,1,8,0.00
2013-12-27,38.1,23.8,5.4,30.9,19.0,2.4,99,82,70,30.33,30.06,8,2,17,0.00
2013-12-28,46.3,30.6,12.1,31.9,23.8,9.5,99,77,57,30.13,29.81,6,2,13,0.00
2013-12-29,38.5,13.2,-8.2,32.3,6.8,-15.9,90,75,63,30.40,29.83,10,5,22,0.00
2013-12-30,3.9,-5.8,-16.9,-3.1,-12.1,-21.5,82,74,51,30.47,30.35,4,1,7,0.01
2013-12-31,5.9,1.1,-4.8,-0.4,-4.4,-10.2,92,77,67,30.53,30.34,5,2,9,0.00
2014-1-1,8.2,2.8,-3.7,-2.3,-6.0,-10.5,72,66,57,30.57,30.48,8,3,13,0.00
2014-1-2,11.5,3.5,-12.6,0.0,-4.6,-17.3,83,69,53,30.59,30.45,7,3,13,0.00